sat.trackr.live / text

‹ back to catalog

STARLINK-6358

NORAD 57377 · 2023-099BB

PAYLOAD ACTIVE UNKNOWN

§ Identity

Operator
Country
US
Launch date
2023-07-16
Launch site
AFETR
Launch vehicle
Mass (kg)
RCS (m²)

Purposes: comms

External: N2YO · Heavens-Above · Gunter

§ Orbital elements

Epoch: 2026-09-20T07:54:16.259904Z

Period
94.27 min
Inclination
43.0010°
Eccentricity
0.0000683
Mean motion
15.27574881 rev/d
Perigee alt
482.6 km
Apogee alt
483.5 km
Semi-major
6,861.2 km
B*
6.0841e-6
RAAN
226.1600°
Arg perigee
249.5719°
Mean anomaly
110.5059°
Rev number
17,591

§ Raw data

STARLINK-63581 57377U 23099BB  26263.32935486 -.00000094  00000+0  60841-5 0  99982 57377  43.0010 226.1600 0000683 249.5719 110.5059 15.27574881175912

JSON: /api/v1/satellites/57377 · /tle

For live sub-satellite position, see the globe view (requires WebGL).

§ Visibility from observer

Set your observer location to see the next 7 days of passes ≥ 10°. The values pass through the URL so the page stays shareable.

No JS? Fill the form by hand. The geolocation button needs JavaScript.